Home   Weather   Ahvaz   Past weeks

Flag for Iran Past Weather in Ahvaz, Iran — Yesterday and Last 2 Weeks

Now
54 °F

Passing clouds.


Feels Like: 52 °F
Forecast: 46 / 65 °F
Wind: 7 mph from Northwest

Location: Ahwaz

Current Time: Jan 23, 2017 at 2:26:21 am

Latest Report: Jan 23, 2017 at 1:30 am


Visibility: N/A

Pressure: 30.12 "Hg

Humidity: 63%

Dew Point: 41 °F

Location of AhvazLocation

Past Weather in Ahvaz — Graph

°F

Ahvaz Temperature Yesterday

Maximum temperature yesterday: 68 °F (at 2:30 pm)
Minimum temperature yesterday: 45 °F (at 5:30 am)
Average temperature yesterday: 58 °F

High & Low Weather Summary for the Past Weeks

 TemperatureHumidityPressure
High77 °F (Jan 9, 2:30 pm)93% (Jan 9, 4:30 am)30.18 "Hg (Jan 9, 4:30 am)
Low39 °F (Jan 13, 7:30 am)10% (Jan 9, 3:00 pm)29.89 "Hg (Jan 8, 3:00 pm)
Average58 °F53%30.04 "Hg
* Reported Jan 8 12:30 am — Jan 23 12:30 am, Ahvaz, Weather by CustomWeather, © 2017

Note: Actual official high and low records may vary slightly from our data, if they occured in-between our weather recording intervals... More about our weather records

Advertising

Ahvaz Weather History for the Previous 24 Hours

Scroll right to see more
 ConditionsComfort  
Time TempWeatherWind HumidityBarometerVisibility
12:30 am
Mon, Jan 23
57 °FPartly cloudy.7 mph51%30.12 "HgN/A
12:00 am57 °FPartly cloudy.5 mph51%30.09 "HgN/A
11:30 pm
Sun, Jan 22
57 °FPassing clouds.2 mph51%30.09 "HgN/A
11:00 pm57 °FPassing clouds.5 mph51%30.09 "HgN/A
10:30 pm57 °FPassing clouds.2 mph48%30.09 "HgN/A
10:00 pm57 °FPassing clouds.5 mph48%30.09 "HgN/A
9:30 pm57 °FPassing clouds.5 mph48%30.07 "HgN/A
9:00 pm59 °FPassing clouds.5 mph45%30.07 "HgN/A
8:30 pm57 °FPassing clouds.5 mph48%30.07 "HgN/A
8:00 pm59 °FClear.7 mph42%30.07 "Hg10 mi
7:30 pm59 °FClear.7 mph45%30.07 "Hg10 mi
7:00 pm61 °FClear.7 mph42%30.07 "Hg10 mi
6:30 pm63 °FClear.5 mph39%30.04 "Hg10 mi
6:00 pm63 °FSunny.5 mph39%30.01 "Hg10 mi
5:30 pm64 °FSunny.5 mph37%30.01 "Hg10 mi
5:00 pm64 °FSunny.7 mph34%30.01 "Hg10 mi
4:30 pm66 °FSunny.9 mph32%30.01 "Hg10 mi
4:00 pm66 °FSunny.9 mph35%30.01 "Hg10 mi
3:30 pm66 °FSunny.9 mph32%30.01 "Hg10 mi
3:00 pm68 °FSunny.7 mph24%30.01 "Hg10 mi
2:30 pm68 °FSunny.7 mph30%30.01 "Hg10 mi
2:00 pm66 °FSunny.5 mph30%30.01 "Hg10 mi
1:30 pm66 °FSunny.5 mph32%30.01 "Hg10 mi
1:00 pm66 °FSunny.2 mph35%30.04 "Hg10 mi
12:30 pm64 °FSunny.5 mph37%30.01 "Hg10 mi
12:00 pm64 °FPassing clouds.5 mph40%30.04 "HgN/A
11:30 am63 °FScattered clouds.2 mph39%30.07 "Hg5 mi
11:00 am63 °FScattered clouds.2 mph42%30.07 "Hg5 mi
10:30 am59 °FPassing clouds.5 mph48%30.09 "Hg5 mi
10:00 am55 °FScattered clouds.2 mph59%30.09 "Hg4 mi
9:30 am54 °FPartly sunny.2 mph58%30.09 "Hg4 mi
9:00 am52 °FPartly sunny.5 mph67%30.07 "Hg4 mi
8:30 am50 °FScattered clouds.2 mph67%30.07 "Hg4 mi
8:00 am48 °FPartly sunny.2 mph71%30.07 "Hg4 mi
7:30 am45 °FClear.2 mph81%30.07 "Hg4 mi
7:00 am45 °FClear.No wind81%30.07 "Hg4 mi
6:30 am45 °FClear.No wind81%30.07 "Hg4 mi
5:30 am45 °FClear.2 mph81%30.04 "Hg10 mi
2:30 am52 °FClear.2 mph58%30.07 "Hg10 mi
Weather by CustomWeather, © 2017

See weather overviewHow to use our weather pages